STARLINK-32294, 61675

Orbit data source: Space-Track

STARLINK-32294, 61675 is a payload satellite owned by SpaceX/Seattle (US) in LEO that was launched on Sat, 26 Oct 2024 UTC via an FALCON 9 launch vehicle from the Air Force Eastern Test Range (AFETR). Payload-class satellites include a variety of spacecraft equipped with specific instruments for various scientific and technological missions. These include communications satellites like Starlink; space stations such as the ISS; scientific satellites like the Hubble; Earth observation satellites from companies like Planet Labs, Umbra, and HawkEye 360; GPS; miniature CubeSats for education and research; and military/defense satellites.

Loading next visibility...
Identifier
61675, 2024-193Q
Orbit
LEO
Last TLE update
9 hours ago
Origin
Manufacturer
SpaceX/Seattle
Mission
Operational Commercial Communications
Bus & Motor
STARLINK V2M, Unknown motor
Mass
730 kg wet, ~700 kg dry
Launch date (UTC)
2024-10-26 (8 months ago)
Launch vehicle
FALCON 9
Launch site
Air Force Eastern Test Range (AFETR)
Object type
Payload
Rocket body
Debris
Shape & HBR
Box + 2 Pan, 29 m
Radar Cross Section
36.964 m², Large (>1 m²)

Expand to show TLE details & history

TLE from 9 hours ago
0 STARLINK-32294
1 61675U 24193Q   25181.99187075  .00001381  00000-0  58750-4 0  9999
2 61675  53.1598 179.8976 0000986 120.7835 239.3263 15.30198015 39221
Epoch: 2025-06-30T23:48Z
TLE epoch observation values (Epoch: 2025-06-30T23:48:17.632Z)
Latitude
-0.00003°
Longitude
-96.46962°
Altitude
476.465 km
Speed
7.629 km/s
True Right ascension
11h 59m 35s
True Declination
0° 00' 00"
Sunlit
Object was in daylight at epoch
Visualization orbit readout
Latitude
-51.36048°
Longitude
150.54528°
Altitude
493.482 km
Speed
7.618 km/s
Apparent Right ascension
06h 34m 11s
Apparent Declination
-49° 36' 46"
Sunlit
Object is in daylight
Visualization observer readout
Local Sidereal Time
20:23:48
Azimuth
125.8° SE
Elevation
-68.426°
Doppler factor
1
Orbital elements
Apogee altitude
476.153 km
Perigee altitude
474.802 km
Semi-major axis
6,853.614 km
Eccentricity
0.0001
Inclination
53.1598°
RAAN
179.8976°
Arg. of periapsis
120.7835°
True anomaly
Unknown
Mean anomaly
239.3263°
Eccentric anomaly
Unknown
Mean motion
3.82528 °/min
Orbital period
94.11 mins
BSTAR
0.00005875
Loading maneuver chart data...
Loading SW <> Apogee altitude chart data...
Loading historical data...
Loading historical data...
Loading historical data...
Loading historical data...
Loading historical data...
Loading historical data...
Loading historical data...

STARLINK-32294 Visibility forecast

Observer location: undefined°, undefined°

Span
Click to sort rows by Start time (UTC) header in descending order
Start Az.
Max El. time (UTC)
Max El. Az.
Max El.
End time (UTC)
End Az.
6 mins2025-07-01 09:42:37.775Z307.142° NW2025-07-01 09:45:37.775Z276.945° WNW42.96°2025-07-01 09:48:37.775Z137.225° SSE
5 mins2025-07-02 02:39:37.775Z239.777° WSW2025-07-02 02:41:37.775Z357.475° N43.497°2025-07-02 02:44:37.775Z46.495° ENE
5 mins2025-07-02 07:35:37.775Z337.583° N2025-07-02 07:38:37.775Z32.768° NE17.087°2025-07-02 07:40:37.775Z66.402° ENE
|